Location: �perlecques
(50.8057°N, 2.1521°E)
Time: 18:24:18
(UTC+00:00)

Vanguard 3 - Pass Details

Date: 04 August 2021
Orbit: 510 x 3260 km, 33.3° (Epoch: 16 September)

Event Time Altitude Azimuth Distance (km) Brightness Sun altitude
Rises 20:52:28 0° 265° (W) 6,310 12.3 -11.0°
Reaches altitude 10° 20:56:44 10° 258° (WSW) 5,593 11.8 -11.5°
Maximum altitude 21:12:10 37° 200° (SSW) 4,331 10.6 -13.1°
Enters shadow 21:25:40 16° 149° (SSE) 5,477 10.7 -14.5°
